GW0920 Weather Reports


Display with metric or nautical units.
time (UTC)temp
F
wind
direction
speed
MPH
gust
MPH
rain 1hr
in
rain 24hr
in
rain mn
in
humidity
%
barometer
mb
20260506233556 56 13 1.0 2.0 0.00 0.08 0.00 99 1012.1
20260506232604 56 351 1.0 5.0 0.00 0.08 0.00 99 1012.0
20260506231555 55 12 0.0 1.0 0.00 0.08 0.00 99 1011.9
20260506230603 55 3 0.0 1.0 0.00 0.08 0.00 99 1011.9
20260506225631 55 0.0 0.0 0.00 0.08 0.00 99 1011.8
20260506224603 55 1 0.0 1.0 0.00 0.08 0.00 99 1011.9
20260506223523 55 108 1.0 2.0 0.00 0.08 0.00 99 1011.8
20260506222604 56 355 2.0 3.0 0.00 0.08 0.00 99 1011.7
20260506221523 56 338 2.0 2.0 0.00 0.08 0.00 99 1011.7
20260506220552 56 10 1.0 1.0 0.00 0.08 0.00 99 1011.9
20260506215611 56 2 1.0 1.0 0.00 0.08 0.08 99 1011.6
20260506214533 56 336 1.0 2.0 0.00 0.08 0.08 99 1011.7
20260506213611 56 340 1.0 2.0 0.00 0.08 0.08 99 1011.6
20260506212633 56 324 1.0 2.0 0.00 0.08 0.08 99 1011.5
20260506211532 56 357 1.0 2.0 0.00 0.08 0.08 99 1011.6
20260506210619 56 4 2.0 5.0 0.00 0.08 0.08 99 1011.5
20260506205532 56 25 2.0 3.0 0.00 0.09 0.08 99 1011.4
20260506204532 56 12 1.0 2.0 0.00 0.09 0.08 99 1011.4
20260506203532 56 341 1.0 2.0 0.00 0.12 0.08 99 1011.3
20260506202547 57 35 1.0 2.0 0.00 0.18 0.08 99 1011.2
20260506201611 57 11 2.0 5.0 0.00 0.26 0.08 99 1011.2
20260506200552 57 351 2.0 5.0 0.00 0.27 0.08 99 1011.3
20260506195612 57 26 1.0 2.0 0.00 0.27 0.08 99 1011.2
20260506194533 57 359 1.0 3.0 0.00 0.28 0.08 99 1011.0
20260506193532 57 356 3.0 5.0 0.00 0.28 0.08 99 1010.8
20260506192532 57 31 2.0 5.0 0.00 0.29 0.08 99 1010.6
20260506191532 57 74 3.0 6.0 0.00 0.29 0.08 99 1010.2
20260506190532 57 27 4.0 8.0 0.00 0.29 0.08 99 1010.0
20260506185523 58 7 4.0 7.0 0.00 0.30 0.08 99 1010.1
20260506184547 58 340 3.0 8.0 0.00 0.30 0.08 99 1010.2
20260506183531 58 320 4.0 8.0 0.00 0.30 0.08 99 1010.2
20260506182623 58 290 7.0 16.0 0.00 0.30 0.08 99 1010.3
20260506181533 58 331 1.0 2.0 0.00 0.30 0.08 99 1009.7
20260506180604 58 0.0 0.0 0.00 0.30 0.08 99 1009.5
20260506175556 59 142 2.0 3.0 0.00 0.30 0.08 99 1009.4
20260506174532 59 43 0.0 1.0 0.00 0.30 0.08 99 1009.2
20260506173532 59 2 2.0 3.0 0.00 0.31 0.08 99 1008.9
20260506172532 59 33 2.0 6.0 0.00 0.31 0.08 99 1008.9
20260506171532 58 321 2.0 3.0 0.00 0.31 0.08 99 1008.7
20260506165553 58 325 1.0 2.0 0.00 0.31 0.08 99 1008.6
20260506164604 58 359 2.0 3.0 0.00 0.31 0.08 99 1008.7
20260506163524 58 354 4.0 6.0 0.00 0.31 0.08 99 1008.6
20260506162548 58 36 3.0 6.0 0.00 0.32 0.08 99 1008.5
20260506161524 59 39 6.0 11.0 0.00 0.33 0.08 99 1007.9
20260506160548 60 68 6.0 10.0 0.00 0.33 0.08 99 1007.5
20260506155612 59 39 6.0 9.0 0.00 0.33 0.08 99 1007.6
20260506154532 59 18 6.0 14.0 0.00 0.33 0.08 99 1007.8
20260506153557 62 27 7.0 11.0 0.00 0.33 0.08 99 1007.9
20260506152621 60 27 6.0 9.0 0.00 0.33 0.08 99 1007.8
20260506151533 0 0.0 0.0 0.00 0.34 0.08 1007.8
20260506150552 0 0.0 0.0 0.00 0.34 0.08 1008.0
20260506145652 0 0.0 0.0 0.00 0.34 0.08 1007.7
20260506144532 0 0.0 0.0 0.00 0.34 0.08 1007.5
20260506143532 0 0.0 0.0 0.00 0.34 0.08 1007.3
20260506142532 0 0.0 0.0 0.00 0.34 0.08 1007.4
20260506141532 0 0.0 0.0 0.00 0.34 0.08 1007.6
20260506140532 0 0.0 0.0 0.00 0.34 0.08 1007.6
20260506135532 0 0.0 0.0 0.00 0.34 0.08 1007.7
20260506134533 0 0.0 0.0 0.00 0.34 0.08 1007.9
20260506133532 0 0.0 0.0 0.00 0.34 0.08 1008.1
20260506132633 0 0.0 0.0 0.00 0.34 0.08 1008.1
20260506131633 0 0.0 0.0 0.00 0.34 0.08 1008.2
20260506130532 0 0.0 0.0 0.00 0.34 0.08 1008.4
20260506125612 0 0.0 0.0 0.00 0.34 0.08 1008.4
20260506124532 0 0.0 0.0 0.00 0.34 0.08 1008.5
20260506123552 0 0.0 0.0 0.00 0.34 0.08 1008.4
20260506122532 0 0.0 0.0 0.00 0.34 0.08 1008.4
20260506121532 0 0.0 0.0 0.00 0.34 0.08 1008.5
20260506120532 0 0.0 0.0 0.00 0.34 0.08 1008.5
20260506115552 0 0.0 0.0 0.00 0.34 0.08 1008.7
20260506114533 0 0.0 0.0 0.00 0.34 0.08 1008.9
20260506113532 0 0.0 0.0 0.00 0.34 0.08 1008.9
20260506112532 0 0.0 0.0 0.00 0.34 0.08 1008.9
20260506111632 0 0.0 0.0 0.00 0.34 0.08 1009.1
20260506110652 0 0.0 0.0 0.00 0.34 0.08 1009.2
20260506105632 0 0.0 0.0 0.00 0.34 0.08 1009.2
20260506104632 0 0.0 0.0 0.00 0.34 0.08 1009.3
20260506103653 0 0.0 0.0 0.00 0.34 0.08 1009.4
20260506102632 0 0.0 0.0 0.00 0.34 0.08 1009.4
20260506101632 0 0.0 0.0 0.00 0.35 0.08 1009.4
20260506100632 0 0.0 0.0 0.00 0.37 0.08 1009.5
20260506095632 0 0.0 0.0 0.00 0.39 0.08 1009.4
20260506094632 0 0.0 0.0 0.00 0.41 0.08 1009.2
20260506093652 0 0.0 0.0 0.00 0.43 0.08 1009.4
20260506092632 0 0.0 0.0 0.00 0.43 0.08 1009.3
20260506091632 0 0.0 0.0 0.00 0.44 0.08 1009.3
20260506090713 0 0.0 0.0 0.00 0.44 0.08 1009.2
20260506085632 0 0.0 0.0 0.00 0.45 0.08 1009.2
20260506084652 0 0.0 0.0 0.00 0.46 0.08 1009.6
20260506083632 0 0.0 0.0 0.00 0.46 0.08 1009.7
20260506082633 0 0.0 0.0 0.00 0.46 0.08 1010.0
20260506081652 0 0.0 0.0 0.00 0.46 0.08 1009.6
20260506080632 0 0.0 0.0 0.00 0.46 0.08 1009.6
20260506072618 0 134 11.0 15.0 0.03 0.47 0.08 1009.1
20260506071558 57 126 14.0 22.0 0.03 0.48 0.08 99 1009.2
20260506070622 56 108 12.0 18.0 0.03 0.49 0.08 99 1008.8
20260506061554 56 120 7.0 9.0 0.00 0.58 0.05 99 1009.6
20260506060637 56 132 9.0 13.0 0.00 0.60 0.05 99 1009.8
20260506050630 55 110 7.0 9.0 0.04 0.64 0.05 99 1009.7
20260506044529 55 126 7.0 9.0 0.05 0.64 0.05 99 1010.1
20260506043554 55 119 6.0 10.0 0.05 0.64 0.05 99 1010.4
20260506042532 55 121 7.0 10.0 0.04 0.63 0.04 99 1010.3
20260506041609 55 115 6.0 9.0 0.03 0.62 0.03 99 1010.4
20260506040532 55 128 7.0 10.0 0.01 0.60 0.01 99 1010.5
20260506035602 56 132 9.0 11.0 0.00 0.59 0.00 99 1010.5
20260506034546 56 126 7.0 8.0 0.00 0.59 0.00 99 1010.5
20260506033541 56 112 5.0 7.0 0.00 0.59 0.00 99 1010.3
20260506032546 56 101 6.0 7.0 0.00 0.59 0.00 99 1010.3
20260506031609 56 101 5.0 7.0 0.00 0.59 0.00 99 1010.5
20260506030530 56 102 7.0 10.0 0.00 0.59 0.00 99 1010.7
20260506025554 56 158 6.0 9.0 0.00 0.59 0.00 99 1011.0
20260506024617 56 144 7.0 10.0 0.00 0.59 0.00 99 1011.2
20260506023537 56 139 5.0 9.0 0.00 0.59 0.00 99 1011.1
20260506022618 56 104 6.0 8.0 0.00 0.59 0.00 99 1011.3
20260506021532 56 104 6.0 9.0 0.00 0.59 0.00 99 1011.4
20260506020550 56 95 3.0 6.0 0.00 0.59 0.00 99 1011.7
20260506015554 56 102 3.0 6.0 0.00 0.59 0.00 99 1011.6
20260506014532 56 80 1.0 2.0 0.00 0.59 0.00 99 1011.5
20260506013611 56 89 2.0 3.0 0.00 0.59 0.00 99 1011.3
20260506012618 56 87 3.0 3.0 0.00 0.59 0.00 99 1011.7
20260506011532 56 82 3.0 5.0 0.00 0.59 0.00 99 1011.5
20260506010618 56 82 3.0 6.0 0.00 0.59 0.00 99 1011.4
20260506005538 56 103 2.0 3.0 0.00 0.59 0.00 99 1011.5
20260506004601 56 102 3.0 6.0 0.00 0.59 0.00 99 1011.7
20260506003521 56 117 4.0 6.0 0.00 0.59 0.00 99 1012.1
20260506002545 56 101 5.0 8.0 0.00 0.59 0.00 99 1012.2
20260506001610 56 132 6.0 8.0 0.00 0.59 0.00 99 1012.3
20260506000530 56 127 5.0 7.0 0.00 0.59 0.00 99 1012.4
20260505235554 56 122 4.0 6.0 0.00 0.59 0.00 99 1012.4
20260505234618 56 97 2.0 3.0 0.00 0.59 0.00 99 1012.6